Regional Weather Roundup
Issued by NWS Little Rock, AR

Home | Current Version | Previous Version | Text Only | Print | Product List | Glossary Off
Versions: 1 2 3 4 5 6 7 8 9 10 11 12 13 14 15 16 17 18 19 20 21 22 23 24 25 26 27 28 29 30 31 32 33 34 35 36 37 38 39 40 41 42 43 44 45 46 47 48 49 50

000
ASUS44 KLZK 141005
RWRLZK

WEATHER ROUNDUP FOR ARKANSAS
NATIONAL WEATHER SERVICE LITTLE ROCK AR
400 AM CST SUN FEB 14 2016

NOTE: "FAIR" INDICATES FEW OR NO CLOUDS BELOW 12,000 FEET WITH NO
SIGNIFICANT WEATHER AND/OR OBSTRUCTIONS TO VISIBILITY.

ARZ001-003-010-029-141100-
NORTHWEST ARKANSAS

CITY           SKY/WX    TMP DP  RH WIND       PRES   REMARKS
FAYETTEVILLE   CLOUDY    37  20  50 SE9       30.02F
FORT SMITH     CLOUDY    34  13  41 E16       30.08F WCI  24
HARRISON       CLOUDY    29  11  47 SE14      30.10F WCI  18
BENTONVILLE    CLOUDY    37  16  41 SE15      30.00F
ROGERS         CLOUDY    36  16  44 SE13      30.00F
SILOAM SPGS    CLOUDY    37  16  41 SE13G20   30.00F
HIGHFILL       CLOUDY    37  18  46 SE14      29.99
$$

ARZ004-005-016-141100-
NORTH CENTRAL ARKANSAS

CITY           SKY/WX    TMP DP  RH WIND       PRES   REMARKS
BATESVILLE     CLOUDY    28  10  47 E7        30.23F WCI  21
FLIPPIN        CLOUDY    27   7  43 E9        30.15F WCI  17
MTN HOME       CLOUDY    26   9  48 E10       30.16F WCI  16
$$

ARZ040-041-141100-
WEST CENTRAL ARKANSAS

CITY           SKY/WX    TMP DP  RH WIND       PRES   REMARKS
MENA           CLOUDY    45  25  45 SE6       30.10F
MOUNT IDA      CLOUDY    37  14  38 SE7       30.11F
$$

ARZ009-017-025-026-028-141100-
NORTHEAST ARKANSAS

CITY           SKY/WX    TMP DP  RH WIND       PRES   REMARKS
CORNING        FAIR      28  10  47 E14       30.28F WCI  17
JONESBORO      CLOUDY    29  13  51 E10       30.26F WCI  20
NEWPORT        CLOUDY    30  12  47 E8        30.26F WCI  22
WALNUT RIDGE   CLOUDY    28  10  47 E10       30.28R WCI  19
BLYTHEVILLE    CLOUDY    32  11  41 SE12G21   30.28F WCI  23
$$

ARZ022-023-033-042-044-141100-
CENTRAL ARKANSAS

CITY           SKY/WX    TMP DP  RH WIND       PRES   REMARKS
LITTLE ROCK    CLOUDY    34  15  46 E10       30.21F WCI  26
N LITTLE ROCK    N/A     32  18  57 E9        30.21F WCI  24
JACKSONVILLE   CLOUDY    32  15  48 E10       30.18F WCI  24
SEARCY         CLOUDY    31  17  56 SE7       30.22F WCI  24
HOT SPRINGS    CLOUDY    36  14  40 E8        30.17F
RUSSELLVILLE   MOCLDY    31  12  45 E8        30.16F WCI  23
CLINTON        CLOUDY    32  12  43 CALM      30.19F
$$

ARZ036-141100-
EAST ARKANSAS

CITY           SKY/WX    TMP DP  RH WIND       PRES   REMARKS
WEST MEMPHIS   CLOUDY    32  10  40 SE14      30.24F WCI  22
$$

ARZ050-053-066-070-073-141100-
SOUTHWEST ARKANSAS

CITY           SKY/WX    TMP DP  RH WIND       PRES   REMARKS
ARKADELPHIA    CLOUDY    38  17  42 E5        30.19F
CAMDEN         CLOUDY    39  14  35 NE5       30.18F
TEXARKANA      CLOUDY    42  21  43 SE8       30.13F
EL DORADO      CLOUDY    42  20  41 E5        30.16F
DE QUEEN       CLOUDY    41  21  44 E8        30.11F
$$

ARZ056-057-069-141100-
SOUTHEAST ARKANSAS

CITY           SKY/WX    TMP DP  RH WIND       PRES   REMARKS
PINE BLUFF     CLOUDY    36  20  52 E10       30.21F
STUTTGART      CLOUDY    34  16  47 E9        30.23F WCI  26
MONTICELLO     CLOUDY    40  20  44 E7        30.19F

$$





USA.gov is the U.S. government's official web portal to all federal, state and local government web resources and services.